STARLINK-4670 (53744 NORAD) Tracking and Keplerian Element Data

This shows tracking and keplerian element data for the satellite.

Feedback or suggestion? Click here.




ElementValue
Catalog53744
NameSTARLINK-4670
Epoch Orbit1199
Epoch Day325.33334491
Epoch Year2022
RAAN270.6443
Inclination53.2152
Eccentricity0.0001558
Argument of Perigee58.2417
Mean Anonmoly60.7596
Mean Motion15.08831222
Decay Rate0.00013716
L11 53744U 22107AW 22325.33334491 .00013716 00000+0 87842-3 0 9998
L22 53744 53.2152 270.6443 0001558 58.2417 60.7596 15.08831222 11990



Live tracking and technical data element details for STARLINK-4670 (NORAD 53744). STARLINK-4670 can be tracked NOW for your location showing map with azimuth and elevation plus other details from your city location.







IsCatalogInMostPopularTable: catalog: 53744, numindb: -1

Insert: records affected: 1


GetName: 53744 STARLINK-4670

Hit Count: inserted at: Mon, 28 Nov 2022 05:21:16 GMT